Regional Weather Roundup
Issued by NWS

Home | Current Version | Previous Version | Text Only | Print | Product List | Glossary On
Versions: 1 2 3 4 5 6 7 8 9 10 11 12 13 14 15 16 17 18 19 20 21 22 23 24 25 26 27 28 29 30 31 32 33 34 35 36 37 38 39 40 41 42 43 44 45 46 47 48 49 50
000
ASUS45 KTFX 251410
RWRMT
MONTANA REGIONAL WEATHER ROUNDUP
NATIONAL WEATHER SERVICE GREAT FALLS MT
800 AM MDT SUN SEP 25 2016

NOTE: "FAIR" INDICATES FEW OR NO CLOUDS BELOW 12000 FEET WITH NO
SIGNIFICANT WEATHER AND/OR OBSTRUCTIONS TO VISIBILITY.

MTZ001>007-043-251500-
WEST OF THE DIVIDE

CITY           SKY/WX    TMP DP  RH WIND       PRES   REMARKS
KALISPELL      MOCLDY    37  36  96 CALM      30.42R
MISSOULA       CLOUDY    40  37  89 CALM      30.49R
BUTTE          CLOUDY    30  27  88 CALM      30.48S
MULLAN PASS    CLOUDY    41  32  70 SW7       30.45S
ANACONDA         N/A     36  30  80 CALM      30.47S
DEER LODGE       N/A     34  30  86 CALM      30.50R
EUREKA           N/A     50  37  62 SE7       30.37S
HAMILTON         N/A     43  36  75 E3        30.47R
LIBBY            N/A     41  37  87 CALM      30.40R
PLAINS           N/A     43  38  82 CALM      30.41S
RONAN            N/A     42  39  89 CALM      30.43S
$$

MTZ008-052>055-251500-
SOUTHWEST MONTANA

CITY           SKY/WX    TMP DP  RH WIND       PRES   REMARKS
BOZEMAN        CLEAR     34  31  88 SE7       30.46S WCI  28
DILLON         CLOUDY    35  30  82 SW8       30.46F WCI  29
W YELLOWSTONE  CLOUDY    25  25 100 CALM      30.52S
ENNIS          CLEAR     32  28  86 CALM      30.51F
THREE FORKS      N/A     33  15  48 CALM      30.39F
$$

MTZ009-010-012-014-046-048-049-054-251500-
EAST SLOPES AND CENTRAL MONTANA

CITY           SKY/WX    TMP DP  RH WIND       PRES   REMARKS
CUT BANK       CLEAR     37  32  82 NW8       30.33R WCI  31
GREAT FALLS    CLEAR     43  34  70 S10       30.36S
MALMSTROM AFB  CLEAR     41  37  83 SW10      30.36S
HELENA         CLOUDY    45  33  63 W3        30.42R
AUGUSTA          N/A     44  32  61 W9        30.36R
BOWMANS CRNR     N/A     40  33  78 S9        30.36S
CHOTEAU          N/A     46  32  57 SW7       30.37R
CONRAD           N/A     42  37  82 S7        30.32R
FAIRFIELD        N/A     41  33  72 SW9       30.35R
POWER            N/A     38  34  85 SW8       30.34S
RAYNESFORD       N/A     39  33  81 SW1       30.36S
$$

MTZ011-013-016-021-045-047-050-051-251500-
NORTH CENTRAL MONTANA

CITY           SKY/WX    TMP DP  RH WIND       PRES   REMARKS
HAVRE          CLEAR     41  39  93 SW12      30.31R
LEWISTOWN      CLEAR     39  35  86 SW5       30.36S
N BAR RANCH      N/A     41  34  75 W5        30.38S
CHINOOK          N/A     37  37 100 CALM      30.32R
DENTON           N/A     44  37  75 W13       30.31S
GEYSER           N/A     44  32  61 W9        30.36R
GRASS RANGE      N/A     44  37  74 W8        30.32S
JUDITH GAP       N/A     37  33  85 S13       30.37S WCI  28
ROY              N/A     44  37  75 MISG      30.32S
STANFORD         N/A     46  33  62 W15       30.35S
WINIFRED         N/A     45  36  71 MISG      30.34R
$$

MTZ017>020-022>027-061-062-251500-
NORTHEAST MONTANA

CITY           SKY/WX    TMP DP  RH WIND       PRES   REMARKS
GLASGOW        CLEAR     39  34  82 W7        30.28S
JORDAN           N/A     42  40  92 W7        30.31S
SIDNEY         SUNNY     46  38  73 NW18G25   30.19R
WOLF POINT     SUNNY     42  36  79 W10       30.26R
PLENTYWOOD       N/A     43  37  81 W14       30.15S
POPLAR           N/A     43  37  81 W10       30.24R
SCOBEY           N/A     42  32  68 W7        30.18R
$$

MTZ028>42-056>058-251500-
SOUTHCENTRAL AND SOUTHEAST MONTANA

CITY           SKY/WX    TMP DP  RH WIND       PRES   REMARKS
BAKER          SUNNY     42  36  79 W15       30.26R
BILLINGS       CLOUDY    48  38  68 SW9       30.38S
LIVINGSTON     CLEAR     37  32  82 W9        30.42F WCI  30
MILES CITY     SUNNY     45  39  79 NW9       30.32R
BIG TIMBER     CLEAR     46  32  57 SW16G23   30.42F
FORSYTH          N/A     46  45  93 SW5       30.34R
HARLOWTON        N/A     40  34  77 W18       30.39R
LAUREL           N/A     44  34  68 S3        30.34R
ROUNDUP          N/A     44  35  70 S10       30.25S
$$

REGIONAL REPORTS...DAKOTAS

CITY           SKY/WX    TMP DP  RH WIND       PRES   REMARKS
WILLISTON      SUNNY     48  38  68 NW21G28   30.15R
MINOT          PTSUNNY   50  44  80 W30G39    29.96R
DICKINSON      SUNNY     45  39  79 W21G29    30.13R
CROSBY           N/A     46  41  81 NW21G26   30.11R
WATFORD CITY     N/A     46  39  76 W15       30.14R
BISMARCK       CLOUDY    51  46  83 NW21G30   29.99R
GRAND FORKS    LGT RAIN  53  49  86 SW15      29.68S
FARGO          PTSUNNY   56  50  80 SW17      29.76S
BUFFALO SD       N/A     47  38  71 W24       30.19R
RAPID CITY     SUNNY     52  31  44 NW26G35   30.29R
$$

REGIONAL REPORTS...WYOMING/IDAHO/WASHINGTON

CITY           SKY/WX    TMP DP  RH WIND       PRES   REMARKS
GILLETTE       CLOUDY    46  42  86 NW10      30.39R
SHERIDAN       CLOUDY    49  41  74 NW6       30.41R
BUFFALO WY     CLOUDY    47  37  68 N6        30.43R
CODY           CLEAR     39  36  87 S3        30.46R
YELLOWSTONE LA   N/A     26  25  96 NW3       30.53S
IDAHO FALLS    CLOUDY    38  35  89 CALM      30.50R
SALMON         CLOUDY    36  34  93 S3        30.53R
BOISE          CLEAR     45  35  68 S3        30.43R
SPOKANE        MOCLDY    52  37  56 SE9       30.40S
$$

REGIONAL REPORTS...ALBERTA

CITY           SKY/WX    TMP DP  RH WIND       PRES   REMARKS
EDMONTON       CLEAR     37  32  81 SW6       30.21S
CALGARY        MOCLDY    37  28  70 SW5       30.26S
LETHBRIDGE     MOCLDY    41  36  81 SW7       30.29S
MEDICINE HAT   PTCLDY    37  36  93 SW8       30.27R WCI  31
WATERTON GATE    N/A     50  32  50 SW18G32     N/A
CARDSTON         N/A     43  32  65 SW6         N/A
MILK RIVER       N/A     37  34  87 NW10        N/A  WCI  30
$$

REGIONAL REPORTS...SASKATCHEWAN

CITY           SKY/WX    TMP DP  RH WIND       PRES   REMARKS
SWIFT CURRENT  CLEAR     39  34  81 W10       30.23R
REGINA         MOSUNNY   43  37  81 W15G21    30.11R
SASKATOON      PTCLDY    41  36  81 W10       30.15R
CYPRESS HILLS    N/A     45  27  49 NE2         N/A
VAL MARIE        N/A     36  32  87 SW5         N/A
ROCKGLEN         N/A     39  34  81 W12G17      N/A  WCI  32
ASSINIBOIA       N/A     39  34  81 W8          N/A
$$



USA.gov is the U.S. government's official web portal to all federal, state and local government web resources and services.